Flag for U.S.A. Weather past 2 weeks in Richmond, Virginia, U.S.A.

Now
38 °F

Cloudy.


Feels Like: 30 °F
Forecast: 31 / 39 °F
Wind: 14 mph from North

Location: Richmond International Airport

Current Time: Jan 27, 2015 at 5:02:56 PM

Latest Report: Jan 27, 2015 at 3:54 PM


Visibility: 10 mi

Pressure: 29.83 "Hg

Humidity: 58%

Dew point: 24 °F

Location of RichmondLocation

Historic Weather in Richmond — Graph

°F

Richmond temperature yesterday

Maximum temperature yesterday: 50 °F (at 12:54 PM)
Minimum temperature yesterday: 32 °F (at 11:54 PM)
Average temperature yesterday: 40 °F

Past Weeks' High & Low Weather Summary

 TemperatureHumidityPressure
High59 °F (Jan 20, 3:54 PM)100% (Jan 12, 3:54 PM)30.53 "Hg (Jan 12, 3:54 PM)
Low27 °F (Jan 14, 7:54 AM)35% (Jan 16, 12:54 PM)29.48 "Hg (Jan 24, 12:54 PM)
Average39 °F76%30.06 "Hg
* Reported Jan 12 3:54 PM — Jan 27 3:54 PM, Richmond, Weather by CustomWeather, © 2014

Note: Actual official high and low records may vary slightly from our data, if they occured in-between our weather recording intervals... More about our weather records

Advertising

Richmond weather history for previous 24 hours

 ConditionsComfort  
Time TempWeatherWind HumidityBarometerVisibility
3:54 PM
Jan 27
38 °FCloudy.14 mph58%29.83 "Hg10 mi
2:54 PM38 °FMostly cloudy.12 mph60%29.80 "Hg10 mi
2:03 PM39 °FMostly cloudy.15 mph56%29.78 "Hg10 mi
12:54 PM36 °FMostly cloudy.14 mph67%29.81 "Hg10 mi
11:54 AM35 °FMostly cloudy.16 mph67%29.82 "Hg10 mi
10:54 AM33 °FLight snow. More clouds than sun.18 mph72%29.84 "Hg9 mi
9:54 AM32 °FMore clouds than sun.17 mph75%29.83 "Hg10 mi
8:54 AM31 °FLight snow. Ice fog.15 mph79%29.83 "Hg2 mi
7:54 AM30 °FLight snow. Ice fog.14 mph82%29.81 "Hg2 mi
6:54 AM30 °FLight snow. Ice fog.13 mph82%29.78 "Hg5 mi
5:54 AM30 °FLight snow. Ice fog.17 mph82%29.76 "Hg3 mi
4:54 AM31 °FOvercast.15 mph76%29.75 "Hg10 mi
3:54 AM32 °FOvercast.16 mph75%29.73 "Hg10 mi
2:54 AM32 °FMostly cloudy.14 mph82%29.72 "Hg10 mi
1:54 AM31 °FMostly cloudy.10 mph89%29.72 "Hg10 mi
1:04 AM30 °FLight snow. Ice fog.14 mph93%29.70 "Hg4 mi
12:54 AM31 °FLight snow. Ice fog.13 mph89%29.72 "Hg2 mi
11:54 PM
Jan 26
32 °FLight snow. Overcast.15 mph85%29.72 "Hg7 mi
11:01 PM34 °FOvercast.12 mph87%29.70 "Hg7 mi
9:54 PM34 °FLow clouds.15 mph92%29.72 "Hg7 mi
8:54 PM35 °FLow clouds.13 mph88%29.71 "Hg8 mi
7:54 PM35 °FLow clouds.15 mph92%29.71 "Hg7 mi
6:54 PM36 °FLow clouds.15 mph92%29.69 "Hg8 mi
5:54 PM37 °FLow clouds.12 mph93%29.68 "Hg9 mi
Weather by CustomWeather, © 2014

See weather overviewHow to use our weather pages